DW7098 Weather Reports


time (UTC)temp
C
wind
direction
speed
KPH
gust
KPH
rain 1hr
cm
rain 24hr
cm
rain mn
cm
humidity
%
barometer
mb
20260503023053 13 206 1.6 8.0 0.00 0.00 0.00
20260503013041 16 217 1.6 11.3 0.00 0.00 0.00
20260503010053 17 225 1.6 11.3 0.00 0.00 0.00
20260503003035 18 225 1.6 8.0 0.00 0.00 0.00
20260503000105 20 266 0.0 9.7 0.00 0.00 0.00
20260502233044 20 143 4.8 9.7 0.00 0.00 0.00
20260502230055 23 301 1.6 11.3 0.00 0.00 0.00
20260502223035 21 160 3.2 9.7 0.00 0.00 0.00
20260502220101 20 203 1.6 11.3 0.00 0.00 0.00
20260502213043 19 171 3.2 12.9 0.00 0.00 0.00
20260502210053 20 226 1.6 6.4 0.00 0.00 0.00
20260502203034 20 232 1.6 8.0 0.00 0.00 0.00
20260502200105 20 318 0.0 8.0 0.00 0.00 0.00
20260502193043 19 30 1.6 4.8 0.00 0.00 0.00
20260502190053 17 66 3.2 9.7 0.00 0.00 0.00
20260502163047 12 84 0.0 4.8 0.00 0.00 0.00
20260502123033 10 283 0.0 3.2 0.00 0.00 0.00
20260502120104 10 220 0.0 1.6 0.00 0.00 0.00
20260502113043 10 202 1.6 3.2 0.00 0.00 0.00
20260502110050 10 269 0.0 1.6 0.00 0.00 0.00
20260502103036 10 247 0.0 1.6 0.00 0.00 0.00
20260502100108 10 236 0.0 3.2 0.00 0.00 0.00
20260502070112 11 250 1.6 3.2 0.00 0.00 0.00
20260502063027 11 33 0.0 6.4 0.00 0.00 0.00
20260502060052 11 214 0.0 3.2 0.00 0.00 0.00
20260502053051 11 221 1.6 6.4 0.00 0.00 0.00
20260502040056 11 246 0.0 3.2 0.00 0.00 0.00
20260502033033 11 261 3.2 9.7 0.00 0.00 0.00